Simultaneous Nadir Overpasses (SNOs) Predictions

Prediction of SNOs between METOP-A and TERRA Satellite Orbit:

Table of predicted SNOs for the next 14.0 days since TLE Epoch: 7/25/2020
Index Date (METOP-A) Time (METOP-A) Lat,Lon (METOP-A) SZA (METOP-A ) Date (TERRA) Time (TERRA) Lat,Lon (TERRA) SZA (TERRA ) Distance(km) Time Diff (sec)
1 07/27/2020 16:02:25 -81.40, 168.47 114.71 07/27/2020 16:03:03 -81.41, 168.64 114.67 2.89 38
2 07/27/2020 16:53:05 81.39, -23.79 65.35 07/27/2020 16:52:30 81.39, -23.97 65.31 3.14 35
3 07/30/2020 11:36:46 -81.40,-125.02 114.03 07/30/2020 11:37:19 -81.39,-125.18 114.04 2.78 33
4 07/30/2020 12:27:26 81.39, 42.69 66.02 07/30/2020 12:26:45 81.40, 42.56 65.99 2.52 41
5 08/02/2020 07:11:06 -81.39, -58.52 113.31 08/02/2020 07:11:33 -81.40, -58.66 113.31 2.49 27
6 08/02/2020 08:01:47 81.39, 108.76 66.70 08/02/2020 08:01:00 81.38, 108.67 66.65 2.03 47
7 08/05/2020 02:45:27 -81.39, 7.97 112.56 08/05/2020 02:45:48 -81.40, 7.81 112.56 2.85 21
8 08/05/2020 03:36:08 81.39, 175.21 67.45 08/05/2020 03:35:15 81.38, 175.12 67.41 1.85 53
9 08/07/2020 22:19:49 -81.40, 74.06 111.80 08/07/2020 22:20:03 -81.40, 74.25 111.77 3.19 14
